Terminal Aerodrome Forecast
Issued by NWS Twin Cities, MN

Home | Current Version | Previous Version | Text Only | Print | Product List | Glossary Off
Versions: 1 2 3 4 5 6 7 8 9 10 11 12 13 14 15 16 17 18 19 20

000
FTUS43 KMPX 170500
TAFSTC
TAF
KSTC 170523Z 1706/1806 13003KT P6SM SCT060
     FM171600 35006KT P6SM SKC
     FM180100 05003KT P6SM SKC=

USA.gov is the U.S. government's official web portal to all federal, state and local government web resources and services.